sat.trackr.live / text

‹ back to catalog

STARLINK-34851

NORAD 66447 · 2025-259AB

PAYLOAD ACTIVE UNKNOWN

§ Identity

Operator
Country
US
Launch date
2025-11-11
Launch site
AFETR
Launch vehicle
Mass (kg)
RCS (m²)

Purposes: comms

External: N2YO · Heavens-Above · Gunter

§ Orbital elements

Epoch: 2026-09-20T06:16:48.486720Z

Period
94.27 min
Inclination
43.0005°
Eccentricity
0.0001738
Mean motion
15.27584106 rev/d
Perigee alt
481.8 km
Apogee alt
484.2 km
Semi-major
6,861.2 km
B*
3.2423e-4
RAAN
255.9259°
Arg perigee
271.7898°
Mean anomaly
88.2754°
Rev number
4,913

§ Raw data

STARLINK-348511 66447U 25259AB  26263.26167230  .00008672  00000+0  32423-3 0  99952 66447  43.0005 255.9259 0001738 271.7898  88.2754 15.27584106 49139

JSON: /api/v1/satellites/66447 · /tle

For live sub-satellite position, see the globe view (requires WebGL).

§ Visibility from observer

Set your observer location to see the next 7 days of passes ≥ 10°. The values pass through the URL so the page stays shareable.

No JS? Fill the form by hand. The geolocation button needs JavaScript.